1522036800.03,47410,9.38,72466.0,-10.57,-42.37,-42.51,0,*65
1522036801.27,47411,9.38,72462.8,-10.57,-42.37,-42.45,0,*61
1522036802.56,47412,9.38,72464.3,-10.59,-42.45,-42.57,0,*6A
1522036803.78,47413,9.38,72460.8,-10.57,-42.37,-42.51,0,*66
1522036805.0,47414,9.31,72460.3,-10.57,-42.37,-42.51,0,*61
1522036806.24,47415,9.38,72460.0,-10.57,-42.45,-42.51,0,*65
1522036807.51,47416,9.38,72462.0,-10.59,-42.51,-42.69,0,*66
1522036808.75,47417,9.38,72460.8,-10.59,-42.51,-42.51,0,*6C
1522036810.0,47418,9.31,72462.3,-10.59,-42.51,-42.51,0,*63
1522036811.24,47419,9.38,72460.5,-10.59,-42.51,-42.51,0,*62
1522036812.48,47420,9.31,72458.5,-10.59,-42.51,-42.51,0,*68
1522036813.7,47421,9.31,72462.0,-10.57,-42.25,-42.37,0,*64
1522036814.92,47422,9.31,72462.0,-10.57,-42.37,-42.51,0,*64
1522036816.16,47423,9.31,72464.3,-10.57,-42.37,-42.45,0,*60
1522036817.43,47424,9.31,72462.3,-10.57,-42.45,-42.45,0,*62
1522036818.67,47425,9.31,72462.0,-10.57,-42.37,-42.45,0,*66
1522036819.96,47426,9.31,72462.3,-10.59,-42.31,-42.45,0,*6D
1522036821.2,47427,9.38,72464.3,-10.59,-42.25,-42.25,0,*6F
1522036822.42,47428,9.31,72466.8,-10.57,-42.25,-42.37,0,*6D
1522036823.64,47429,9.31,72462.3,-10.57,-42.37,-42.37,0,*6F
1522036824.91,47430,9.38,72464.8,-10.59,-42.31,-42.51,0,*6F
1522036826.12,47431,9.31,72462.0,-10.57,-42.25,-42.37,0,*65
1522036827.42,47432,9.38,72466.5,-10.59,-42.45,-42.31,0,*68
1522036828.66,47433,9.38,72468.0,-10.57,-42.37,-42.45,0,*61
1522036829.88,47434,9.31,72464.8,-10.57,-42.37,-42.37,0,*63
1522036831.09,47435,9.31,72460.0,-10.57,-42.37,-42.37,0,*62
1522036832.34,47436,9.31,72466.8,-10.57,-42.25,-42.45,0,*67
1522036833.55,47437,9.31,72466.3,-10.57,-42.37,-42.37,0,*60
1522036834.84,47438,9.31,72466.3,-10.59,-42.45,-42.57,0,*62
1522036836.12,47439,9.31,72462.8,-10.59,-42.45,-42.57,0,*63
1522036837.39,47440,9.38,72466.8,-10.59,-42.45,-42.51,0,*6B
1522036838.68,47441,9.31,72466.5,-10.59,-42.31,-42.45,0,*6C
1522036839.93,47442,9.31,72462.0,-10.57,-42.19,-42.25,0,*6D
1522036841.21,47443,9.38,72464.5,-10.59,-42.25,-42.31,0,*68
1522036842.42,47444,9.31,72462.0,-10.57,-42.37,-42.25,0,*67
1522036843.69,47445,9.31,72462.3,-10.59,-42.31,-42.51,0,*6D
1522036844.91,47446,9.38,72466.0,-10.57,-42.37,-42.37,0,*66
1522036846.2,47447,9.38,72464.3,-10.59,-42.45,-42.45,0,*69
1522036847.48,47448,9.31,72464.3,-10.59,-42.45,-42.45,0,*66
1522036848.75,47449,9.31,72464.0,-10.59,-42.45,-42.51,0,*62
1522036850.02,47450,9.38,72466.5,-10.59,-42.45,-42.51,0,*6A
1522036851.27,47451,9.31,72466.8,-10.57,-42.19,-42.25,0,*6F
1522036852.56,47452,9.31,72466.0,-10.59,-42.31,-42.45,0,*6E
1522036853.85,47453,9.38,72466.3,-10.59,-42.31,-42.45,0,*6F
1522036855.11,47454,9.38,72464.0,-10.59,-42.45,-42.51,0,*6E
1522036856.35,47455,9.31,72464.3,-10.57,-42.37,-42.45,0,*61
1522036857.62,47456,9.38,72470.0,-10.59,-42.45,-42.51,0,*6C
1522036858.91,47457,9.31,72462.5,-10.59,-42.31,-42.45,0,*6B
1522036860.18,47458,9.31,72464.8,-10.59,-42.25,-42.45,0,*61
1522036861.44,47459,9.31,72464.3,-10.63,-42.37,-42.57,0,*69
1522036862.7,47460,9.31,72462.0,-10.59,-42.25,-42.45,0,*6A
1522036863.97,47461,9.31,72464.0,-10.59,-42.25,-42.45,0,*6B
1522036865.19,47462,9.38,72462.3,-10.57,-42.25,-42.37,0,*63
1522036866.43,47463,9.31,72466.8,-10.59,-42.25,-42.25,0,*6F
1522036867.71,47464,9.31,72464.8,-10.59,-42.25,-42.31,0,*6D
1522036868.95,47465,9.31,72460.0,-10.57,-42.05,-42.37,0,*66
1522036870.16,47466,9.31,72462.8,-10.57,-42.37,-42.37,0,*64
1522036871.45,47467,9.31,72464.0,-10.59,-42.31,-42.45,0,*68
1522036872.7,47468,9.31,72460.0,-10.57,-42.19,-42.25,0,*65
1522036873.97,47469,9.31,72460.0,-10.59,-42.31,-42.37,0,*63
1522036875.24,47470,9.31,72464.3,-10.59,-42.25,-42.31,0,*68
1522036876.51,47471,9.38,72466.8,-10.59,-42.25,-42.31,0,*69
1522036877.79,47472,9.31,72464.0,-10.59,-42.25,-42.31,0,*6A
1522036879.06,47473,9.31,72466.5,-10.59,-42.25,-42.45,0,*68
1522036880.34,47474,9.31,72462.8,-10.59,-42.45,-42.45,0,*69
1522036881.61,47475,9.38,72466.0,-10.59,-42.45,-42.51,0,*6D
1522036882.85,47476,9.31,72464.0,-10.57,-42.37,-42.45,0,*60
1522036884.09,47477,9.31,72466.5,-10.57,-42.37,-42.45,0,*61
1522036885.33,47478,9.31,72464.0,-10.57,-42.45,-42.37,0,*6E
1522036886.62,47479,9.31,72464.3,-10.59,-42.45,-42.57,0,*67
1522036887.86,47480,9.31,72468.0,-10.57,-42.37,-42.45,0,*69
1522036889.08,47481,9.31,72464.5,-10.57,-42.37,-42.51,0,*6D
1522036890.34,47482,9.38,72470.0,-10.57,-42.45,-42.45,0,*6E
1522036891.63,47483,9.31,72466.8,-10.59,-42.45,-42.69,0,*6F
1522036892.9,47484,9.31,72464.5,-10.59,-42.51,-42.57,0,*60
1522036894.16,47485,9.31,72466.0,-10.59,-42.51,-42.57,0,*61
1522036895.42,47486,9.31,72464.8,-10.59,-42.51,-42.45,0,*61
1522036896.71,47487,9.31,72466.3,-10.59,-42.31,-42.45,0,*66
1522036898.0,47488,9.31,72464.3,-10.59,-42.31,-42.45,0,*69
1522036899.24,47489,9.31,72468.3,-10.63,-42.37,-42.51,0,*62
1522036900.49,47490,9.31,72466.8,-10.59,-42.25,-42.51,0,*60
1522036901.76,47491,9.31,72468.3,-10.59,-42.45,-42.51,0,*67
1522036903.05,47492,9.31,72466.8,-10.59,-42.31,-42.45,0,*62
1522036904.32,47493,9.38,72470.5,-10.59,-42.45,-42.51,0,*65
1522036905.58,47494,9.31,72470.0,-10.59,-42.45,-42.51,0,*62
1522036906.82,47495,9.31,72470.0,-10.63,-42.37,-42.51,0,*6F
1522036908.09,47496,9.38,72470.5,-10.59,-42.45,-42.51,0,*60
1522036909.38,47497,9.38,72470.8,-10.59,-42.31,-42.45,0,*67
1522036910.65,47498,9.31,72464.0,-10.59,-42.31,-42.51,0,*6D
1522036911.94,47499,9.31,72468.0,-10.59,-42.31,-42.45,0,*69
1522036913.18,47500,9.31,72464.3,-10.63,-42.37,-42.51,0,*62
1522036914.42,47501,9.31,72468.8,-10.63,-42.37,-42.51,0,*63
1522036915.69,47502,9.31,72468.3,-10.63,-42.31,-42.51,0,*66
1522036916.93,47503,9.38,72470.0,-10.63,-42.51,-42.51,0,*61
1522036918.19,47504,9.38,72470.5,-10.63,-42.51,-42.57,0,*60
1522036919.43,47505,9.31,72468.8,-10.63,-42.51,-42.75,0,*61
1522036920.7,47506,9.31,72468.5,-10.63,-42.57,-42.75,0,*64
1522036921.96,47507,9.38,72470.3,-10.63,-42.37,-42.57,0,*63
1522036923.2,47508,9.31,72468.0,-10.63,-42.51,-42.63,0,*6B
1522036924.46,47509,9.31,72470.8,-10.63,-42.37,-42.57,0,*6D
1522036925.68,47510,9.31,72468.8,-10.65,-42.51,-42.51,0,*65
1522036926.9,47511,9.31,72464.0,-10.65,-42.51,-42.63,0,*65
1522036928.14,47512,9.31,72466.0,-10.63,-42.37,-42.63,0,*60
1522036929.39,47513,9.38,72470.8,-10.63,-42.51,-42.63,0,*61
1522036930.63,47514,9.31,72468.5,-10.63,-42.51,-42.63,0,*66
1522036931.87,47515,9.31,72468.5,-10.63,-42.51,-42.63,0,*67
1522036933.1,47516,9.31,72468.0,-10.65,-42.51,-42.75,0,*65
1522036934.34,47517,9.31,72470.0,-10.63,-42.51,-42.63,0,*65
1522036935.58,47518,9.31,72464.5,-10.65,-42.57,-42.75,0,*6D
1522036936.82,47519,9.38,72466.8,-10.65,-42.57,-42.75,0,*6C
1522036938.08,47520,9.31,72466.8,-10.63,-42.63,-42.83,0,*6E
1522036939.36,47521,9.31,72460.3,-10.63,-42.57,-42.83,0,*68
1522036940.61,47522,9.38,72470.0,-10.65,-42.57,-42.75,0,*64
1522036941.82,47523,9.31,72464.3,-10.65,-42.63,-42.75,0,*62
1522036943.06,47524,9.31,72466.0,-10.65,-42.63,-42.83,0,*6C
1522036944.33,47525,9.38,72468.0,-10.65,-42.83,-42.95,0,*64
1522036945.57,47526,9.38,72468.8,-10.65,-42.57,-42.63,0,*67
1522036946.79,47527,9.31,72466.5,-10.65,-42.37,-42.51,0,*61
1522036948.01,47528,9.31,72466.8,-10.65,-42.37,-42.51,0,*6E
1522036949.25,47529,9.31,72466.5,-10.65,-42.19,-42.51,0,*63
1522036950.5,47530,9.31,72466.8,-10.65,-42.19,-42.51,0,*6B
1522036951.74,47531,9.31,72464.5,-10.63,-42.37,-42.51,0,*60
1522036952.96,47532,9.31,72466.0,-10.65,-42.37,-42.51,0,*65
1522036954.2,47533,9.31,72462.8,-10.63,-42.37,-42.51,0,*62
1522036955.44,47534,9.38,72468.8,-10.63,-42.37,-42.51,0,*65
1522036956.68,47535,9.38,72468.8,-10.65,-42.31,-42.51,0,*64
1522036957.95,47536,9.31,72464.3,-10.63,-42.31,-42.51,0,*61
1522036959.21,47537,9.38,72470.8,-10.63,-42.31,-42.37,0,*60
1522036960.47,47538,9.31,72466.5,-10.63,-42.31,-42.37,0,*6F
1522036961.73,47539,9.31,72466.3,-10.63,-42.31,-42.37,0,*6E
1522036962.97,47540,9.31,72470.3,-10.63,-42.37,-42.51,0,*66
1522036964.24,47541,9.38,72472.8,-10.63,-42.51,-42.57,0,*61
1522036965.47,47542,9.31,72470.0,-10.65,-42.37,-42.57,0,*64
1522036966.73,47543,9.38,72472.8,-10.63,-42.51,-42.57,0,*63
1522036967.97,47544,9.31,72468.8,-10.65,-42.51,-42.57,0,*62
1522036969.19,47545,9.31,72470.8,-10.65,-42.51,-42.63,0,*64
1522036970.45,47546,9.31,72472.0,-10.63,-42.57,-42.75,0,*60
1522036971.7,47547,9.38,72472.8,-10.65,-42.63,-42.95,0,*6E
1522036972.94,47548,9.31,72468.5,-10.65,-42.75,-42.83,0,*61
1522036974.18,47549,9.31,72470.0,-10.65,-42.63,-42.83,0,*67
1522036975.44,47550,9.31,72468.3,-10.65,-42.57,-42.95,0,*6F
1522036976.68,47551,9.31,72468.3,-10.65,-42.63,-42.83,0,*6E
1522036977.94,47552,9.38,72470.5,-10.63,-42.63,-42.83,0,*6B
1522036979.19,47553,9.31,72464.0,-10.67,-42.51,-42.63,0,*61
1522036980.43,47554,9.31,72466.0,-10.67,-42.51,-42.63,0,*66
1522036981.7,47555,9.31,72470.0,-10.67,-42.51,-42.57,0,*60
1522036982.96,47556,9.31,72460.5,-10.67,-42.51,-42.57,0,*63
1522036984.23,47557,9.31,72460.0,-10.67,-42.31,-42.51,0,*62
1522036985.47,47558,9.31,72460.3,-10.67,-42.37,-42.51,0,*6B
1522036986.75,47559,9.31,72462.5,-10.65,-42.31,-42.31,0,*68
1522036987.96,47560,9.31,72460.0,-10.65,-42.13,-42.37,0,*64
1522036989.2,47561,9.31,72464.8,-10.65,-42.31,-42.37,0,*65
1522036990.44,47562,9.31,72460.8,-10.65,-42.31,-42.37,0,*66
1522036991.68,47563,9.31,72462.0,-10.65,-42.19,-42.37,0,*6D
1522036992.92,47564,9.31,72466.3,-10.65,-42.31,-42.37,0,*60
1522036994.16,47565,9.31,72462.3,-10.65,-42.31,-42.37,0,*61
1522036995.4,47566,9.31,72460.3,-10.65,-42.51,-42.57,0,*62
1522036996.62,47567,9.31,72464.0,-10.65,-42.37,-42.51,0,*65
1522036997.85,47568,9.31,72462.8,-10.65,-42.31,-42.37,0,*6C
1522036999.12,47569,9.31,72466.0,-10.69,-42.45,-42.45,0,*67
1522037000.38,47570,9.31,72466.5,-10.67,-42.51,-42.57,0,*67
1522037001.62,47571,9.31,72464.3,-10.65,-42.31,-42.51,0,*64
1522037002.89,47572,9.31,72464.0,-10.63,-42.19,-42.37,0,*6B
1522037004.16,47573,9.31,72462.5,-10.65,-42.19,-42.31,0,*6A
1522037005.41,47574,9.31,72462.8,-10.63,-42.51,-42.63,0,*60
1522037006.63,47575,9.31,72462.8,-10.65,-42.37,-42.63,0,*67
1522037007.84,47576,9.31,72460.3,-10.65,-42.37,-42.51,0,*65
1522037009.06,47577,9.31,72462.0,-10.65,-42.37,-42.51,0,*64
1522037010.31,47578,9.31,72464.3,-10.65,-42.31,-42.51,0,*6D
1522037011.58,47579,9.31,72462.5,-10.65,-42.31,-42.31,0,*6A
1522037012.82,47580,9.31,72464.3,-10.65,-42.19,-42.37,0,*60
1522037014.06,47581,9.31,72464.0,-10.65,-42.31,-42.51,0,*6B
1522037015.31,47582,9.31,72462.5,-10.65,-42.19,-42.51,0,*62
1522037016.58,47583,9.31,72460.5,-10.63,-42.19,-42.51,0,*65
1522037017.83,47584,9.31,72462.3,-10.65,-42.19,-42.51,0,*64
1522037019.09,47585,9.31,72462.5,-10.63,-42.19,-42.37,0,*63
1522037020.35,47586,9.31,72460.0,-10.63,-42.31,-42.37,0,*6A
1522037021.6,47587,9.31,72462.8,-10.65,-42.31,-42.51,0,*6D
1522037022.84,47588,9.31,72466.3,-10.65,-42.37,-42.57,0,*62
1522037024.08,47589,9.31,72462.0,-10.65,-42.57,-42.63,0,*62
1522037025.32,47590,9.31,72460.8,-10.65,-42.57,-42.75,0,*6D
1522037026.56,47591,9.31,72464.3,-10.65,-42.57,-42.63,0,*6B
1522037027.8,47592,9.31,72466.3,-10.65,-42.57,-42.75,0,*6F
1522037029.07,47593,9.31,72464.8,-10.63,-42.57,-42.75,0,*68
1522037030.31,47594,9.31,72460.3,-10.65,-42.57,-42.63,0,*6E
1522037031.53,47595,9.31,72464.3,-10.65,-42.51,-42.63,0,*69
1522037032.75,47596,9.31,72462.0,-10.65,-42.51,-42.63,0,*6A
1522037033.97,47597,9.31,72464.3,-10.65,-42.63,-42.75,0,*6D
1522037035.19,47598,9.31,72462.0,-10.65,-42.51,-42.63,0,*64
1522037036.43,47599,9.31,72464.8,-10.65,-42.37,-42.57,0,*62
1522037037.65,47600,9.31,72464.3,-10.65,-42.51,-42.63,0,*66
1522037038.88,47601,9.31,72464.5,-10.65,-42.51,-42.57,0,*60
1522037040.11,47602,9.31,72464.8,-10.65,-42.51,-42.63,0,*64
1522037041.33,47603,9.31,72462.0,-10.65,-42.51,-42.75,0,*62
1522037042.55,47604,9.31,72464.0,-10.65,-42.51,-42.63,0,*62
1522037043.77,47605,9.31,72462.0,-10.65,-42.37,-42.63,0,*63
1522037045.01,47606,9.31,72460.5,-10.67,-42.51,-42.63,0,*62
1522037046.28,47607,9.31,72466.0,-10.69,-42.69,-42.83,0,*68
1522037047.51,47608,9.31,72464.8,-10.69,-42.63,-42.69,0,*69
1522037048.8,47609,9.31,72462.0,-10.67,-42.57,-42.83,0,*65
1522037050.07,47610,9.31,72462.5,-10.67,-42.57,-42.75,0,*64
1522037051.31,47611,9.31,72464.0,-10.67,-42.63,-42.75,0,*62
1522037052.55,47612,9.31,72466.3,-10.69,-42.37,-42.57,0,*6E
1522037053.77,47613,9.31,72462.8,-10.69,-42.51,-42.63,0,*68
1522037055.01,47614,9.31,72462.8,-10.67,-42.37,-42.51,0,*60
1522037056.26,47615,9.31,72462.3,-10.67,-42.51,-42.51,0,*61
1522037057.5,47616,9.31,72462.0,-10.67,-42.51,-42.63,0,*63
1522037058.77,47617,9.31,72462.5,-10.69,-42.57,-42.69,0,*60
1522037060.0,47618,9.31,72464.8,-10.69,-42.51,-42.57,0,*64
1522037061.26,47619,9.31,72464.5,-10.69,-42.57,-42.69,0,*6E
1522037062.53,47620,9.31,72466.8,-10.67,-42.37,-42.57,0,*61
1522037063.79,47621,9.31,72466.5,-10.69,-42.45,-42.57,0,*6B
1522037065.05,47622,9.31,72466.5,-10.69,-42.57,-42.69,0,*66
1522037066.31,47623,9.31,72464.0,-10.69,-42.57,-42.69,0,*67
1522037067.58,47624,9.31,72464.5,-10.67,-42.57,-42.75,0,*63
1522037068.85,47625,9.31,72466.0,-10.67,-42.57,-42.75,0,*62
1522037070.11,47626,9.31,72466.8,-10.67,-42.51,-42.57,0,*67
1522037071.35,47627,9.31,72466.3,-10.69,-42.57,-42.63,0,*69
1522037072.61,47628,9.31,72468.3,-10.69,-42.57,-42.57,0,*61
1522037073.85,47629,9.31,72470.3,-10.69,-42.37,-42.57,0,*66
1522037075.11,47630,9.31,72466.0,-10.67,-42.37,-42.57,0,*60
1522037076.35,47631,9.31,72466.8,-10.69,-42.45,-42.63,0,*6D
1522037077.57,47632,9.31,72466.8,-10.69,-42.51,-42.63,0,*6B
1522037078.79,47633,9.31,72464.5,-10.69,-42.51,-42.63,0,*6A
1522037080.06,47634,9.31,72466.3,-10.69,-42.45,-42.57,0,*6F
1522037081.32,47635,9.31,72464.3,-10.69,-42.45,-42.57,0,*6E
1522037082.58,47636,9.31,72464.0,-10.69,-42.45,-42.57,0,*6D
1522037083.81,47637,9.31,72464.8,-10.69,-42.37,-42.57,0,*69
1522037085.08,47638,9.38,72468.8,-10.67,-42.51,-42.57,0,*68
1522037086.34,47639,9.31,72464.8,-10.69,-42.45,-42.57,0,*62
1522037087.6,47640,9.31,72462.5,-10.69,-42.45,-42.45,0,*6F
1522037088.87,47641,9.31,72462.0,-10.67,-42.31,-42.37,0,*66
1522037090.13,47642,9.31,72460.3,-10.69,-42.57,-42.69,0,*60
1522037091.37,47643,9.31,72460.5,-10.69,-42.63,-42.69,0,*66
1522037092.6,47644,9.31,72460.5,-10.69,-42.63,-42.83,0,*65
1522037093.85,47645,9.31,72462.8,-10.67,-42.37,-42.51,0,*64
1522037095.06,47646,9.31,72464.5,-10.69,-42.25,-42.37,0,*6A
1522037096.33,47647,9.31,72462.3,-10.67,-42.31,-42.37,0,*60
1522037097.59,47648,9.31,72466.0,-10.69,-42.45,-42.57,0,*64
1522037098.88,47649,9.31,72466.8,-10.67,-42.31,-42.31,0,*68
1522037100.12,47650,9.31,72460.8,-10.69,-42.37,-42.45,0,*6B
1522037101.37,47651,9.31,72462.0,-10.69,-42.45,-42.63,0,*6B
1522037102.63,47652,9.31,72462.0,-10.67,-42.37,-42.57,0,*64
1522037103.87,47653,9.31,72460.5,-10.69,-42.37,-42.45,0,*68
1522037105.11,47654,9.31,72460.3,-10.69,-42.57,-42.63,0,*6D
1522037106.35,47655,9.31,72466.0,-10.69,-42.45,-42.63,0,*6F
1522037107.61,47656,9.31,72466.8,-10.69,-42.45,-42.57,0,*6B
1522037108.83,47657,9.31,72464.0,-10.69,-42.37,-42.63,0,*68
1522037110.08,47658,9.31,72462.3,-10.67,-42.51,-42.63,0,*69
1522037111.34,47659,9.31,72466.8,-10.67,-42.51,-42.57,0,*6F
1522037112.61,47660,9.38,72466.3,-10.67,-42.51,-42.57,0,*65
1522037113.85,47661,9.31,72466.3,-10.69,-42.45,-42.63,0,*68
1522037115.09,47662,9.31,72462.8,-10.69,-42.57,-42.63,0,*68
1522037116.34,47663,9.31,72464.8,-10.67,-42.51,-42.63,0,*61
1522037117.6,47664,9.31,72466.8,-10.69,-42.57,-42.69,0,*64
1522037118.86,47665,9.31,72464.3,-10.69,-42.57,-42.57,0,*68
1522037120.14,47666,9.31,72466.0,-10.71,-42.45,-42.57,0,*61
1522037121.43,47667,9.31,72462.5,-10.71,-42.45,-42.57,0,*60
1522037122.69,47668,9.31,72460.8,-10.71,-42.57,-42.63,0,*6B
1522037123.93,47669,9.31,72460.3,-10.69,-42.57,-42.63,0,*63
1522037125.18,47670,9.31,72466.0,-10.69,-42.57,-42.63,0,*6B
1522037126.43,47671,9.38,72468.8,-10.69,-42.57,-42.57,0,*6D
1522037127.7,47672,9.31,72460.5,-10.71,-42.57,-42.63,0,*60
1522037128.97,47673,9.31,72466.3,-10.71,-42.45,-42.63,0,*62
1522037130.23,47674,9.31,72460.5,-10.69,-42.45,-42.57,0,*6B
1522037131.49,47675,9.31,72466.3,-10.69,-42.57,-42.57,0,*69
1522037132.73,47676,9.31,72460.3,-10.69,-42.45,-42.63,0,*6E
1522037133.99,47677,9.31,72462.8,-10.71,-42.57,-42.63,0,*65
1522037135.26,47678,9.31,72466.0,-10.71,-42.57,-42.63,0,*6A
1522037136.52,47679,9.31,72460.5,-10.71,-42.63,-42.69,0,*66
1522037137.76,47680,9.31,72464.8,-10.71,-42.63,-42.63,0,*6A
1522037139.02,47681,9.31,72462.5,-10.71,-42.37,-42.57,0,*6D
1522037140.28,47682,9.31,72464.0,-10.71,-42.37,-42.57,0,*6E
1522037141.54,47683,9.31,72464.3,-10.71,-42.37,-42.57,0,*6F
1522037142.8,47684,9.31,72460.0,-10.71,-42.37,-42.57,0,*68
1522037144.07,47685,9.31,72464.5,-10.71,-42.25,-42.57,0,*6A
1522037145.3,47686,9.31,72464.3,-10.71,-42.37,-42.37,0,*6C
1522037146.56,47687,9.31,72464.5,-10.71,-42.37,-42.57,0,*6B
1522037147.82,47688,9.31,72464.5,-10.71,-42.37,-42.45,0,*67
1522037149.06,47689,9.31,72464.8,-10.71,-42.37,-42.37,0,*63
1522037150.33,47690,9.31,72464.5,-10.71,-42.45,-42.63,0,*6F
1522037151.59,47691,9.31,72462.3,-10.71,-42.57,-42.63,0,*6D
1522037152.85,47692,9.31,72464.3,-10.71,-42.57,-42.63,0,*6E
1522037154.12,47693,9.31,72466.3,-10.71,-42.57,-42.63,0,*6F
1522037155.4,47694,9.31,72466.8,-10.71,-42.45,-42.57,0,*6C
1522037156.67,47695,9.31,72464.8,-10.69,-42.45,-42.57,0,*64
1522037157.95,47696,9.31,72462.0,-10.71,-42.45,-42.57,0,*6E
1522037159.22,47697,9.31,72464.8,-10.71,-42.45,-42.63,0,*68
1522037160.48,47698,9.31,72468.0,-10.71,-42.57,-42.63,0,*64
1522037161.74,47699,9.31,72464.0,-10.69,-42.45,-42.57,0,*68
1522037163.03,47700,9.31,72462.3,-10.71,-42.45,-42.57,0,*60
1522037164.29,47701,9.31,72466.8,-10.69,-42.45,-42.57,0,*68
1522037165.53,47702,9.31,72460.5,-10.69,-42.57,-42.63,0,*6F
1522037166.79,47703,9.31,72462.3,-10.69,-42.45,-42.57,0,*6A
1522037168.05,47704,9.31,72460.8,-10.67,-42.51,-42.57,0,*66
1522037169.34,47705,9.31,72460.3,-10.71,-42.57,-42.57,0,*66
1522037170.62,47706,9.31,72466.5,-10.71,-42.57,-42.57,0,*65
1522037171.9,47707,9.31,72464.8,-10.71,-42.57,-42.57,0,*64
1522037173.16,47708,9.31,72464.0,-10.71,-42.57,-42.63,0,*6C
1522037174.45,47709,9.31,72466.8,-10.71,-42.57,-42.57,0,*6A
1522037175.71,47710,9.31,72464.8,-10.71,-42.45,-42.63,0,*66
1522037176.98,47711,9.31,72464.8,-10.71,-42.45,-42.63,0,*67
1522037178.26,47712,9.31,72464.0,-10.71,-42.57,-42.57,0,*60
1522037179.54,47713,9.31,72466.3,-10.71,-42.57,-42.57,0,*61
1522037180.83,47714,9.31,72466.8,-10.71,-42.45,-42.57,0,*65
1522037182.11,47715,9.31,72460.3,-10.71,-42.45,-42.57,0,*64
1522037183.37,47716,9.31,72460.3,-10.71,-42.37,-42.57,0,*62
1522037184.65,47717,9.31,72462.3,-10.71,-42.57,-42.57,0,*65
1522037185.89,47718,9.31,72458.3,-10.71,-42.25,-42.37,0,*69
1522037187.15,47719,9.31,72464.3,-10.71,-42.37,-42.45,0,*6E
1522037188.42,47720,9.31,72464.5,-10.71,-42.57,-42.63,0,*66
1522037189.7,47721,9.31,72464.8,-10.71,-42.57,-42.57,0,*60
1522037190.94,47722,9.31,72464.8,-10.69,-42.57,-42.63,0,*6D
1522037192.2,47723,9.31,72466.0,-10.69,-42.45,-42.45,0,*6B
1522037193.44,47724,9.31,72464.5,-10.69,-42.57,-42.63,0,*6B
1522037194.66,47725,9.31,72466.5,-10.69,-42.63,-42.63,0,*6D
1522037195.93,47726,9.31,72466.8,-10.69,-42.45,-42.69,0,*60
1522037197.19,47727,9.31,72464.8,-10.69,-42.45,-42.57,0,*6C
1522037198.44,47728,9.31,72464.5,-10.69,-42.57,-42.57,0,*60
1522037199.71,47729,9.31,72462.8,-10.69,-42.57,-42.69,0,*6C
1522037200.99,47730,9.31,72462.0,-10.71,-42.57,-42.69,0,*6D
1522037202.25,47731,9.31,72466.8,-10.69,-42.57,-42.69,0,*65
1522037203.53,47732,9.31,72470.3,-10.71,-42.57,-42.57,0,*62
1522037204.8,47733,9.31,72462.5,-10.71,-42.57,-42.63,0,*64
1522037206.08,47734,9.31,72466.3,-10.71,-42.57,-42.83,0,*6D
1522037207.37,47735,9.31,72464.0,-10.71,-42.57,-42.69,0,*68
1522037208.59,47736,9.31,72464.0,-10.73,-42.63,-42.75,0,*63
1522037209.87,47737,9.31,72460.8,-10.71,-42.57,-42.69,0,*6A
1522037211.14,47738,9.31,72468.3,-10.71,-42.63,-42.69,0,*62
1522037212.38,47739,9.31,72466.3,-10.73,-42.69,-42.89,0,*65
1522037213.62,47740,9.31,72464.8,-10.71,-42.63,-42.63,0,*67
1522037214.86,47741,9.31,72460.8,-10.73,-42.57,-42.89,0,*67
1522037216.12,47742,9.31,72462.8,-10.71,-42.63,-42.83,0,*6B
1522037217.38,47743,9.31,72464.5,-10.71,-42.63,-42.69,0,*6E
1522037218.64,47744,9.31,72464.8,-10.71,-42.63,-42.69,0,*69
1522037219.9,47745,9.31,72464.8,-10.71,-42.63,-42.69,0,*68
1522037221.14,47746,9.31,72466.3,-10.71,-42.63,-42.63,0,*61
1522037222.39,47747,9.31,72466.0,-10.73,-42.69,-42.75,0,*6F
1522037223.63,47748,9.31,72464.3,-10.73,-42.69,-42.89,0,*63
1522037224.9,47749,9.31,72468.0,-10.71,-42.63,-42.69,0,*64
1522037226.12,47750,9.31,72470.3,-10.73,-42.63,-42.75,0,*63
1522037227.36,47751,9.31,72464.8,-10.69,-42.57,-42.63,0,*69
1522037228.62,47752,9.31,72464.5,-10.71,-42.57,-42.63,0,*63
1522037229.86,47753,9.31,72464.8,-10.73,-42.63,-42.69,0,*6D
1522037231.15,47754,9.31,72466.3,-10.71,-42.57,-42.69,0,*6F
1522037232.37,47755,9.31,72462.5,-10.73,-42.51,-42.63,0,*60
1522037233.66,47756,9.31,72464.8,-10.71,-42.57,-42.57,0,*60
1522037234.92,47757,9.31,72466.3,-10.71,-42.45,-42.63,0,*65
1522037236.16,47758,9.31,72464.3,-10.73,-42.63,-42.69,0,*66
1522037237.39,47759,9.31,72466.0,-10.73,-42.51,-42.63,0,*6C
1522037238.61,47760,9.31,72464.8,-10.73,-42.63,-42.63,0,*67
1522037239.86,47761,9.31,72464.8,-10.73,-42.69,-42.75,0,*6B
1522037241.1,47762,9.31,72464.0,-10.71,-42.63,-42.75,0,*60
1522037242.37,47763,9.31,72464.5,-10.73,-42.69,-42.95,0,*67
1522037243.63,47764,9.31,72468.5,-10.71,-42.63,-42.69,0,*6B
1522037244.88,47765,9.31,72464.5,-10.73,-42.69,-42.89,0,*6C
1522037246.12,47766,9.31,72466.8,-10.73,-42.69,-42.75,0,*6C
1522037247.39,47767,9.31,72462.5,-10.73,-42.69,-42.69,0,*60
1522037248.61,47768,9.31,72462.8,-10.73,-42.51,-42.51,0,*6F
1522037249.9,47769,9.31,72464.0,-10.71,-42.57,-42.57,0,*6C
1522037251.12,47770,9.31,72462.0,-10.73,-42.63,-42.63,0,*66
1522037252.36,47771,9.31,72464.3,-10.73,-42.63,-42.69,0,*6D
1522037253.6,47772,9.31,72464.0,-10.73,-42.51,-42.69,0,*6F
1522037254.82,47773,9.31,72466.5,-10.73,-42.63,-42.63,0,*65
1522037256.05,47774,9.31,72468.3,-10.73,-42.63,-42.63,0,*62
1522037257.27,47775,9.31,72464.0,-10.73,-42.51,-42.51,0,*63
1522037258.49,47776,9.31,72466.3,-10.73,-42.51,-42.63,0,*61
1522037259.71,47777,9.31,72460.8,-10.73,-42.51,-42.51,0,*61
1522037260.95,47778,9.31,72470.5,-10.73,-42.63,-42.69,0,*64
1522037262.24,47779,9.31,72466.0,-10.71,-42.57,-42.57,0,*6D
1522037263.46,47780,9.31,72466.0,-10.73,-42.51,-42.63,0,*68
1522037264.7,47781,9.31,72468.0,-10.73,-42.63,-42.69,0,*62
1522037265.94,47782,9.31,72464.8,-10.73,-42.63,-42.69,0,*61
1522037267.18,47783,9.31,72468.3,-10.73,-42.63,-42.69,0,*60
1522037268.44,47784,9.31,72462.8,-10.71,-42.37,-42.57,0,*69
1522037269.7,47785,9.31,72466.3,-10.71,-42.37,-42.45,0,*6B
1522037270.93,47786,9.31,72464.5,-10.73,-42.51,-42.63,0,*6E
1522037272.21,47787,9.31,72466.5,-10.71,-42.45,-42.45,0,*6C
1522037273.43,47788,9.31,72464.5,-10.73,-42.51,-42.51,0,*61
1522037274.67,47789,9.31,72464.0,-10.73,-42.51,-42.45,0,*65
1522037275.9,47790,9.31,72466.3,-10.73,-42.51,-42.51,0,*68
1522037277.18,47791,9.31,72462.5,-10.71,-42.57,-42.57,0,*6B
1522037278.4,47792,9.31,72466.8,-10.73,-42.51,-42.51,0,*6A
1522037279.64,47793,9.31,72464.3,-10.73,-42.51,-42.57,0,*6D
1522037280.86,47794,9.31,72466.3,-10.73,-42.51,-42.63,0,*6D
1522037282.15,47795,9.31,72466.8,-10.71,-42.45,-42.45,0,*6F
1522037283.37,47796,9.31,72464.5,-10.73,-42.51,-42.63,0,*6F
1522037284.66,47797,9.31,72462.8,-10.71,-42.45,-42.57,0,*6E
1522037285.88,47798,9.31,72464.0,-10.73,-42.51,-42.51,0,*60
1522037287.1,47799,9.31,72462.0,-10.73,-42.63,-42.63,0,*61
1522037288.32,47800,9.31,72466.0,-10.73,-42.51,-42.51,0,*6E
1522037289.58,47801,9.31,72464.0,-10.71,-42.57,-42.63,0,*6A
1522037290.83,47802,9.31,72462.3,-10.73,-42.63,-42.69,0,*66
1522037292.11,47803,9.31,72466.3,-10.71,-42.45,-42.69,0,*61
1522037293.39,47804,9.31,72466.5,-10.71,-42.57,-42.57,0,*68
1522037294.62,47805,9.31,72466.5,-10.73,-42.51,-42.63,0,*6A
1522037295.88,47806,9.31,72462.3,-10.71,-42.57,-42.63,0,*6D
1522037297.12,47807,9.31,72464.3,-10.73,-42.69,-42.89,0,*67
1522037298.37,47808,9.31,72466.0,-10.71,-42.63,-42.63,0,*64
1522037299.59,47809,9.31,72464.3,-10.73,-42.51,-42.63,0,*66